QPF
0.00 0.00 0.00 0.01 0.01 0.01 0.01 0.00 0.01 0.01 0.01 0.00 0.01 0.01 0.01 0.01 0.02 0.02 0.01 0.02 0.02 0.01 0.02 0.02 0.02 0.03 0.03 0.03 0.02 0.01 0.01 0.00 0.00 0.00 0.00 0.00 0.00 0.01 0.01 0.01 0.01 0.00 0.00 0.00 0.00 0.00 0.00 0.00 0.00
0.00 0.00 0.00 0.00 0.01 0.01 0.00 0.00 0.00 0.01 0.01 0.01 0.01 0.01 0.01 0.01 0.00 0.00 0.01 0.02 0.02 0.02 0.03 0.02 0.03 0.03 0.03 0.03 0.02 0.01 0.01 0.01 0.00 0.01 0.01 0.00 0.01 0.01 0.01 0.00 0.01 0.00 0.00 0.00 0.00 0.00 0.00 0.01 0.01
0.00 0.00 0.00 0.00 0.01 0.01 0.01 0.00 0.00 0.00 0.00 0.01 0.01 0.01 0.01 0.01 0.01 0.01 0.01 0.01 0.03 0.04 0.05 0.05 0.04 0.03 0.02 0.02 0.02 0.02 0.02 0.02 0.02 0.02 0.02 0.01 0.01 0.01 0.01 0.00 0.00 0.00 0.00 0.00 0.01 0.01 0.02 0.02 0.02
0.00 0.00 0.00 0.00 0.00 0.00 0.00 0.00 0.00 0.00 0.01 0.01 0.01 0.02 0.01 0.01 0.01 0.01 0.00 0.01 0.03 0.06 0.07 0.05 0.03 0.03 0.03 0.02 0.02 0.02 0.02 0.01 0.02 0.02 0.03 0.02 0.02 0.01 0.01 0.00 0.00 0.00 0.01 0.01 0.01 0.02 0.02 0.01 0.02
0.00 0.00 0.00 0.00 0.00 0.00 0.00 0.00 0.00 0.00 0.01 0.01 0.01 0.01 0.01 0.01 0.02 0.02 0.01 0.01 0.02 0.04 0.06 0.04 0.05 0.03 0.03 0.02 0.01 0.01 0.02 0.01 0.01 0.02 0.02 0.02 0.01 0.01 0.01 0.01 0.01 0.01 0.02 0.02 0.02 0.02 0.02 0.01 0.02
0.00 0.01 0.00 0.00 0.00 0.00 0.00 0.00 0.00 0.00 0.01 0.01 0.01 0.01 0.02 0.02 0.03 0.02 0.02 0.01 0.02 0.03 0.03 0.04 0.03 0.02 0.02 0.01 0.01 0.01 0.01 0.01 0.01 0.02 0.01 0.01 0.01 0.01 0.02 0.02 0.02 0.02 0.03 0.03 0.02 0.02 0.02 0.02 0.02
0.00 0.01 0.01 0.00 0.00 0.00 0.00 0.00 0.00 0.00 0.01 0.01 0.01 0.03 0.04 0.03 0.03 0.02 0.02 0.02 0.02 0.02 0.03 0.04 0.03 0.03 0.02 0.02 0.01 0.01 0.01 0.01 0.01 0.02 0.02 0.01 0.01 0.02 0.02 0.02 0.03 0.03 0.03 0.03 0.03 0.02 0.02 0.01 0.01
0.00 0.01 0.01 0.00 0.00 0.00 0.00 0.00 0.00 0.00 0.00 0.01 0.02 0.05 0.03 0.02 0.02 0.02 0.02 0.03 0.02 0.02 0.04 0.04 0.03 0.04 0.04 0.03 0.03 0.03 0.03 0.02 0.02 0.02 0.02 0.01 0.01 0.01 0.02 0.03 0.03 0.04 0.04 0.05 0.05 0.04 0.03 0.02 0.02
0.00 0.00 0.00 0.00 0.00 0.00 0.00 0.00 0.00 0.00 0.00 0.00 0.01 0.03 0.03 0.01 0.02 0.02 0.02 0.02 0.02 0.01 0.02 0.03 0.03 0.03 0.04 0.04 0.04 0.04 0.04 0.04 0.04 0.03 0.03 0.02 0.02 0.02 0.03 0.02 0.02 0.03 0.05 0.05 0.06 0.06 0.06 0.05 0.03
0.00 0.00 0.00 0.00 0.00 0.00 0.00 0.00 0.00 0.01 0.01 0.01 0.02 0.03 0.04 0.02 0.02 0.02 0.02 0.02 0.02 0.02 0.02 0.02 0.02 0.04 0.04 0.03 0.03 0.03 0.03 0.04 0.04 0.04 0.04 0.04 0.03 0.03 0.03 0.03 0.03 0.04 0.05 0.05 0.05 0.06 0.06 0.05 0.05
0.00 0.00 0.00 0.00 0.00 0.00 0.00 0.00 0.00 0.01 0.02 0.02 0.02 0.03 0.05 0.03 0.02 0.02 0.01 0.02 0.01 0.02 0.02 0.02 0.02 0.04 0.03 0.03 0.03 0.02 0.02 0.03 0.04 0.05 0.05 0.05 0.03 0.03 0.03 0.04 0.04 0.04 0.05 0.05 0.05 0.06 0.06 0.06 0.06
0.00 0.00 0.00 0.00 0.00 0.00 0.00 0.01 0.01 0.01 0.01 0.02 0.02 0.02 0.04 0.04 0.02 0.02 0.01 0.01 0.01 0.00 0.01 0.01 0.02 0.03 0.03 0.02 0.02 0.02 0.03 0.04 0.05 0.04 0.03 0.03 0.03 0.03 0.03 0.03 0.03 0.04 0.04 0.04 0.05 0.05 0.05 0.04 0.04
0.00 0.00 0.00 0.00 0.00 0.00 0.00 0.01 0.01 0.01 0.01 0.02 0.02 0.02 0.02 0.03 0.03 0.03 0.01 0.01 0.01 0.00 0.00 0.01 0.02 0.02 0.02 0.02 0.02 0.03 0.04 0.05 0.06 0.04 0.02 0.02 0.03 0.03 0.03 0.02 0.02 0.02 0.03 0.03 0.04 0.05 0.05 0.04 0.03
0.00 0.00 0.00 0.00 0.00 0.00 0.00 0.01 0.01 0.01 0.02 0.03 0.03 0.02 0.03 0.05 0.04 0.03 0.02 0.01 0.01 0.01 0.01 0.01 0.01 0.01 0.01 0.02 0.02 0.03 0.03 0.04 0.03 0.02 0.02 0.02 0.02 0.03 0.03 0.02 0.02 0.02 0.03 0.04 0.05 0.05 0.06 0.05 0.04
0.00 0.00 0.00 0.00 0.00 0.00 0.00 0.01 0.01 0.02 0.02 0.03 0.03 0.03 0.04 0.05 0.06 0.06 0.05 0.04 0.03 0.02 0.02 0.01 0.01 0.01 0.02 0.02 0.02 0.02 0.02 0.03 0.03 0.02 0.02 0.02 0.02 0.02 0.02 0.02 0.02 0.03 0.04 0.04 0.05 0.05 0.06 0.04 0.04
0.00 0.00 0.00 0.00 0.00 0.00 0.00 0.01 0.01 0.02 0.01 0.03 0.03 0.05 0.05 0.06 0.06 0.06 0.06 0.06 0.05 0.03 0.03 0.03 0.02 0.03 0.03 0.04 0.03 0.02 0.02 0.03 0.03 0.02 0.03 0.03 0.03 0.03 0.03 0.03 0.03 0.03 0.03 0.03 0.04 0.04 0.05 0.05 0.05
0.00 0.00 0.00 0.00 0.00 0.01 0.01 0.01 0.01 0.03 0.01 0.01 0.02 0.05 0.08 0.06 0.05 0.04 0.05 0.06 0.06 0.05 0.05 0.06 0.06 0.05 0.05 0.05 0.04 0.03 0.03 0.03 0.03 0.03 0.04 0.05 0.05 0.04 0.05 0.05 0.05 0.04 0.04 0.04 0.04 0.05 0.04 0.04 0.05
0.01 0.01 0.01 0.01 0.01 0.01 0.01 0.01 0.00 0.01 0.02 0.01 0.02 0.03 0.07 0.06 0.04 0.03 0.04 0.06 0.05 0.04 0.05 0.07 0.09 0.11 0.11 0.09 0.05 0.04 0.04 0.04 0.03 0.04 0.05 0.05 0.07 0.07 0.06 0.05 0.05 0.05 0.05 0.04 0.04 0.04 0.04 0.05 0.05
0.01 0.01 0.01 0.01 0.01 0.02 0.02 0.02 0.01 0.02 0.03 0.02 0.02 0.02 0.03 0.03 0.03 0.03 0.03 0.03 0.04 0.05 0.05 0.09 0.11 0.13 0.12 0.10 0.06 0.05 0.05 0.04 0.04 0.04 0.05 0.05 0.07 0.07 0.05 0.04 0.04 0.04 0.04 0.03 0.03 0.02 0.02 0.03 0.05
0.01 0.01 0.02 0.01 0.01 0.02 0.02 0.02 0.02 0.02 0.01 0.02 0.03 0.03 0.02 0.02 0.02 0.02 0.02 0.03 0.03 0.04 0.05 0.09 0.09 0.09 0.09 0.10 0.08 0.07 0.07 0.06 0.05 0.04 0.05 0.05 0.05 0.04 0.04 0.04 0.04 0.03 0.03 0.02 0.02 0.02 0.02 0.02 0.04
0.02 0.01 0.01 0.01 0.01 0.01 0.02 0.03 0.02 0.03 0.02 0.02 0.02 0.02 0.02 0.03 0.03 0.03 0.02 0.04 0.04 0.03 0.04 0.06 0.08 0.07 0.09 0.10 0.10 0.08 0.07 0.07 0.07 0.06 0.05 0.05 0.04 0.04 0.04 0.04 0.04 0.03 0.02 0.02 0.02 0.02 0.02 0.02 0.03
0.01 0.01 0.01 0.01 0.01 0.01 0.01 0.02 0.02 0.03 0.03 0.02 0.02 0.02 0.02 0.03 0.04 0.03 0.02 0.03 0.03 0.04 0.05 0.05 0.05 0.06 0.07 0.08 0.09 0.07 0.07 0.07 0.07 0.07 0.06 0.05 0.06 0.06 0.05 0.04 0.04 0.03 0.03 0.02 0.02 0.02 0.03 0.03 0.03
0.00 0.00 0.00 0.00 0.01 0.01 0.01 0.02 0.02 0.02 0.02 0.02 0.01 0.01 0.02 0.03 0.04 0.04 0.03 0.03 0.03 0.03 0.05 0.05 0.04 0.04 0.04 0.05 0.06 0.06 0.06 0.06 0.07 0.08 0.09 0.08 0.07 0.05 0.04 0.05 0.05 0.05 0.03 0.03 0.02 0.03 0.03 0.03 0.03
0.00 0.00 0.00 0.00 0.01 0.02 0.02 0.03 0.03 0.03 0.03 0.02 0.01 0.01 0.01 0.02 0.03 0.04 0.03 0.03 0.03 0.02 0.02 0.03 0.03 0.04 0.04 0.05 0.06 0.06 0.06 0.06 0.06 0.06 0.07 0.08 0.07 0.06 0.05 0.04 0.05 0.05 0.05 0.04 0.03 0.03 0.03 0.03 0.03
0.00 0.01 0.02 0.02 0.02 0.02 0.02 0.03 0.05 0.05 0.03 0.02 0.02 0.02 0.01 0.02 0.02 0.03 0.02 0.02 0.01 0.01 0.02 0.02 0.03 0.04 0.04 0.04 0.05 0.09 0.08 0.06 0.06 0.05 0.06 0.07 0.06 0.05 0.05 0.04 0.03 0.04 0.04 0.04 0.04 0.05 0.04 0.04 0.04
0.00 0.00 0.01 0.01 0.01 0.02 0.02 0.06 0.09 0.07 0.05 0.03 0.02 0.02 0.02 0.02 0.02 0.03 0.02 0.02 0.01 0.01 0.02 0.03 0.04 0.05 0.05 0.04 0.05 0.06 0.07 0.05 0.04 0.04 0.05 0.05 0.05 0.05 0.06 0.05 0.03 0.03 0.03 0.03 0.04 0.04 0.03 0.03 0.03
0.01 0.01 0.00 0.01 0.01 0.02 0.04 0.07 0.12 0.09 0.05 0.03 0.02 0.03 0.04 0.04 0.04 0.03 0.02 0.02 0.02 0.02 0.05 0.08 0.05 0.03 0.05 0.05 0.05 0.04 0.04 0.05 0.05 0.05 0.05 0.04 0.05 0.04 0.05 0.06 0.05 0.03 0.03 0.03 0.03 0.03 0.03 0.03 0.03
0.01 0.01 0.01 0.02 0.02 0.04 0.05 0.08 0.09 0.06 0.03 0.03 0.03 0.06 0.07 0.05 0.04 0.03 0.02 0.02 0.02 0.03 0.05 0.11 0.07 0.04 0.04 0.04 0.03 0.03 0.03 0.04 0.04 0.04 0.03 0.04 0.05 0.04 0.04 0.04 0.05 0.05 0.04 0.03 0.03 0.04 0.04 0.03 0.03
0.01 0.01 0.01 0.01 0.01 0.03 0.06 0.08 0.06 0.04 0.03 0.03 0.03 0.06 0.06 0.05 0.04 0.02 0.01 0.01 0.01 0.02 0.02 0.04 0.03 0.02 0.02 0.03 0.03 0.03 0.02 0.02 0.02 0.02 0.02 0.04 0.04 0.03 0.03 0.02 0.03 0.04 0.03 0.02 0.03 0.04 0.04 0.03 0.03
0.01 0.00 0.01 0.02 0.02 0.03 0.05 0.07 0.05 0.04 0.03 0.03 0.02 0.03 0.04 0.05 0.04 0.03 0.03 0.01 0.01 0.01 0.02 0.02 0.01 0.02 0.02 0.02 0.03 0.03 0.03 0.03 0.03 0.03 0.03 0.03 0.04 0.03 0.03 0.04 0.03 0.02 0.02 0.03 0.03 0.03 0.03 0.03 0.04
MSLP
1010.06 1010.34 1010.64 1010.86 1010.96 1010.91 1010.72 1010.43 1010.11 1009.82 1009.60 1009.45 1009.33 1009.20 1009.00 1008.68 1008.24 1007.70 1007.14 1006.64 1006.28 1006.14 1006.22 1006.50 1006.92 1007.40 1007.87 1008.26 1008.58 1008.83 1009.07 1009.35 1009.73 1010.22 1010.78 1011.39 1011.96 1012.45 1012.81 1013.04 1013.16 1013.25 1013.35 1013.51 1013.77 1014.11 1014.48 1014.85 1015.14
1010.04 1010.35 1010.64 1010.84 1010.89 1010.78 1010.51 1010.12 1009.68 1009.25 1008.88 1008.57 1008.32 1008.10 1007.86 1007.57 1007.22 1006.82 1006.44 1006.14 1005.97 1005.98 1006.17 1006.52 1006.98 1007.45 1007.90 1008.27 1008.56 1008.82 1009.07 1009.38 1009.79 1010.30 1010.89 1011.50 1012.07 1012.54 1012.87 1013.07 1013.18 1013.25 1013.35 1013.53 1013.81 1014.18 1014.58 1014.97 1015.26
1010.16 1010.42 1010.64 1010.74 1010.70 1010.48 1010.11 1009.63 1009.09 1008.56 1008.08 1007.68 1007.36 1007.08 1006.84 1006.58 1006.31 1006.04 1005.82 1005.68 1005.67 1005.82 1006.12 1006.54 1007.04 1007.53 1007.98 1008.36 1008.66 1008.92 1009.19 1009.52 1009.94 1010.45 1011.02 1011.61 1012.16 1012.60 1012.91 1013.10 1013.22 1013.30 1013.43 1013.64 1013.94 1014.33 1014.74 1015.12 1015.40
1010.41 1010.58 1010.67 1010.63 1010.44 1010.08 1009.60 1009.02 1008.41 1007.82 1007.30 1006.86 1006.52 1006.24 1006.01 1005.80 1005.61 1005.45 1005.35 1005.34 1005.46 1005.72 1006.10 1006.59 1007.13 1007.66 1008.14 1008.54 1008.86 1009.14 1009.43 1009.76 1010.16 1010.64 1011.18 1011.72 1012.22 1012.64 1012.95 1013.16 1013.30 1013.43 1013.60 1013.84 1014.16 1014.55 1014.95 1015.30 1015.53
1010.74 1010.78 1010.70 1010.49 1010.12 1009.63 1009.03 1008.38 1007.72 1007.12 1006.60 1006.18 1005.85 1005.60 1005.42 1005.27 1005.15 1005.07 1005.06 1005.15 1005.36 1005.69 1006.14 1006.69 1007.27 1007.84 1008.36 1008.79 1009.15 1009.46 1009.75 1010.06 1010.44 1010.87 1011.34 1011.83 1012.29 1012.68 1012.99 1013.22 1013.41 1013.60 1013.82 1014.09 1014.43 1014.80 1015.16 1015.46 1015.63
1011.04 1010.95 1010.70 1010.30 1009.77 1009.14 1008.45 1007.75 1007.08 1006.50 1006.01 1005.64 1005.37 1005.18 1005.05 1004.97 1004.92 1004.91 1004.97 1005.12 1005.38 1005.76 1006.25 1006.82 1007.44 1008.04 1008.59 1009.06 1009.46 1009.79 1010.08 1010.38 1010.71 1011.08 1011.48 1011.90 1012.31 1012.68 1013.00 1013.27 1013.51 1013.75 1014.02 1014.32 1014.66 1015.00 1015.31 1015.54 1015.65
1011.22 1010.99 1010.58 1010.03 1009.36 1008.62 1007.87 1007.14 1006.49 1005.95 1005.53 1005.23 1005.03 1004.91 1004.86 1004.84 1004.85 1004.90 1005.01 1005.20 1005.49 1005.88 1006.38 1006.96 1007.58 1008.20 1008.77 1009.28 1009.70 1010.05 1010.35 1010.63 1010.92 1011.22 1011.56 1011.92 1012.27 1012.62 1012.94 1013.24 1013.53 1013.82 1014.13 1014.45 1014.78 1015.09 1015.34 1015.51 1015.56
1011.19 1010.84 1010.31 1009.64 1008.88 1008.08 1007.29 1006.57 1005.96 1005.46 1005.11 1004.88 1004.74 1004.70 1004.71 1004.76 1004.84 1004.95 1005.11 1005.33 1005.63 1006.03 1006.51 1007.06 1007.67 1008.27 1008.84 1009.36 1009.80 1010.16 1010.48 1010.74 1011.00 1011.26 1011.54 1011.84 1012.16 1012.47 1012.80 1013.12 1013.44 1013.77 1014.10 1014.43 1014.75 1015.02 1015.23 1015.34 1015.36
1010.93 1010.49 1009.88 1009.14 1008.32 1007.51 1006.72 1006.03 1005.45 1005.00 1004.69 1004.50 1004.43 1004.44 1004.51 1004.63 1004.78 1004.96 1005.17 1005.42 1005.74 1006.13 1006.58 1007.10 1007.66 1008.23 1008.78 1009.28 1009.72 1010.10 1010.42 1010.69 1010.93 1011.17 1011.42 1011.68 1011.96 1012.26 1012.57 1012.90 1013.24 1013.59 1013.94 1014.27 1014.57 1014.81 1014.98 1015.07 1015.06
1010.46 1009.96 1009.30 1008.54 1007.73 1006.93 1006.18 1005.51 1004.96 1004.53 1004.24 1004.06 1004.00 1004.04 1004.16 1004.34 1004.56 1004.81 1005.09 1005.40 1005.76 1006.14 1006.58 1007.05 1007.55 1008.06 1008.56 1009.04 1009.47 1009.85 1010.18 1010.47 1010.72 1010.96 1011.20 1011.45 1011.71 1012.00 1012.30 1012.63 1012.98 1013.33 1013.68 1014.00 1014.29 1014.52 1014.68 1014.75 1014.75
1009.87 1009.34 1008.67 1007.93 1007.15 1006.39 1005.68 1005.04 1004.49 1004.05 1003.72 1003.52 1003.44 1003.47 1003.60 1003.83 1004.12 1004.46 1004.83 1005.22 1005.62 1006.04 1006.46 1006.90 1007.35 1007.80 1008.25 1008.68 1009.09 1009.47 1009.82 1010.13 1010.41 1010.68 1010.94 1011.19 1011.46 1011.74 1012.04 1012.36 1012.70 1013.05 1013.39 1013.71 1014.00 1014.22 1014.39 1014.48 1014.50
1009.26 1008.72 1008.08 1007.37 1006.65 1005.94 1005.26 1004.62 1004.06 1003.57 1003.18 1002.90 1002.76 1002.74 1002.87 1003.11 1003.47 1003.90 1004.37 1004.86 1005.34 1005.81 1006.26 1006.68 1007.10 1007.50 1007.89 1008.28 1008.66 1009.04 1009.40 1009.74 1010.06 1010.38 1010.67 1010.96 1011.25 1011.54 1011.84 1012.16 1012.48 1012.82 1013.15 1013.47 1013.76 1014.00 1014.18 1014.30 1014.36
1008.73 1008.21 1007.60 1006.95 1006.28 1005.62 1004.96 1004.32 1003.72 1003.16 1002.67 1002.28 1002.03 1001.94 1002.02 1002.26 1002.66 1003.16 1003.74 1004.33 1004.92 1005.47 1005.97 1006.42 1006.82 1007.20 1007.56 1007.91 1008.27 1008.64 1009.00 1009.38 1009.75 1010.11 1010.46 1010.80 1011.11 1011.42 1011.73 1012.04 1012.36 1012.68 1013.00 1013.32 1013.62 1013.88 1014.10 1014.26 1014.36
1008.39 1007.88 1007.31 1006.72 1006.10 1005.47 1004.84 1004.18 1003.52 1002.88 1002.28 1001.77 1001.40 1001.20 1001.20 1001.41 1001.81 1002.36 1003.01 1003.71 1004.40 1005.05 1005.63 1006.14 1006.57 1006.95 1007.30 1007.64 1007.98 1008.34 1008.72 1009.12 1009.53 1009.93 1010.33 1010.71 1011.06 1011.40 1011.71 1012.02 1012.32 1012.63 1012.94 1013.26 1013.56 1013.85 1014.10 1014.31 1014.46
1008.25 1007.77 1007.24 1006.68 1006.10 1005.51 1004.88 1004.22 1003.52 1002.80 1002.10 1001.48 1000.99 1000.67 1000.58 1000.71 1001.07 1001.62 1002.30 1003.06 1003.84 1004.58 1005.25 1005.84 1006.34 1006.77 1007.14 1007.50 1007.84 1008.19 1008.58 1008.98 1009.41 1009.84 1010.27 1010.68 1011.07 1011.42 1011.74 1012.04 1012.33 1012.62 1012.92 1013.22 1013.54 1013.85 1014.14 1014.39 1014.59
1008.33 1007.87 1007.36 1006.83 1006.28 1005.71 1005.10 1004.44 1003.73 1002.98 1002.22 1001.52 1000.92 1000.50 1000.28 1000.31 1000.58 1001.06 1001.71 1002.48 1003.29 1004.10 1004.87 1005.55 1006.14 1006.64 1007.08 1007.46 1007.82 1008.19 1008.56 1008.96 1009.39 1009.82 1010.26 1010.68 1011.08 1011.44 1011.76 1012.06 1012.33 1012.60 1012.87 1013.16 1013.47 1013.78 1014.10 1014.39 1014.64
1008.59 1008.13 1007.62 1007.11 1006.58 1006.04 1005.46 1004.84 1004.15 1003.42 1002.66 1001.92 1001.26 1000.74 1000.41 1000.30 1000.42 1000.78 1001.33 1002.03 1002.82 1003.65 1004.47 1005.24 1005.93 1006.53 1007.05 1007.50 1007.90 1008.27 1008.64 1009.02 1009.42 1009.84 1010.26 1010.67 1011.06 1011.41 1011.73 1012.00 1012.25 1012.49 1012.73 1013.00 1013.29 1013.60 1013.93 1014.24 1014.53
1008.96 1008.49 1007.98 1007.46 1006.95 1006.44 1005.92 1005.36 1004.75 1004.09 1003.39 1002.68 1002.01 1001.42 1000.98 1000.72 1000.66 1000.83 1001.21 1001.77 1002.46 1003.26 1004.09 1004.92 1005.69 1006.40 1007.01 1007.54 1007.99 1008.39 1008.76 1009.11 1009.47 1009.84 1010.22 1010.60 1010.96 1011.30 1011.60 1011.85 1012.08 1012.28 1012.49 1012.72 1012.98 1013.28 1013.59 1013.92 1014.22
1009.41 1008.92 1008.38 1007.86 1007.36 1006.88 1006.42 1005.96 1005.47 1004.93 1004.34 1003.72 1003.08 1002.47 1001.94 1001.52 1001.26 1001.20 1001.35 1001.70 1002.24 1002.93 1003.72 1004.56 1005.41 1006.20 1006.92 1007.53 1008.05 1008.48 1008.84 1009.17 1009.48 1009.80 1010.13 1010.46 1010.79 1011.10 1011.37 1011.61 1011.81 1011.99 1012.16 1012.35 1012.58 1012.84 1013.13 1013.44 1013.75
1009.88 1009.36 1008.81 1008.26 1007.77 1007.34 1006.95 1006.59 1006.24 1005.85 1005.41 1004.91 1004.35 1003.75 1003.15 1002.60 1002.14 1001.84 1001.73 1001.83 1002.16 1002.69 1003.39 1004.21 1005.08 1005.94 1006.74 1007.44 1008.02 1008.49 1008.86 1009.17 1009.44 1009.70 1009.98 1010.26 1010.55 1010.83 1011.09 1011.31 1011.50 1011.66 1011.80 1011.96 1012.14 1012.36 1012.62 1012.90 1013.19
1010.37 1009.82 1009.24 1008.68 1008.20 1007.79 1007.47 1007.22 1006.99 1006.75 1006.47 1006.10 1005.64 1005.08 1004.45 1003.79 1003.16 1002.63 1002.27 1002.12 1002.21 1002.56 1003.12 1003.87 1004.73 1005.63 1006.49 1007.26 1007.90 1008.42 1008.80 1009.10 1009.34 1009.56 1009.78 1010.02 1010.28 1010.54 1010.79 1011.01 1011.20 1011.36 1011.49 1011.62 1011.77 1011.95 1012.16 1012.40 1012.65
1010.86 1010.29 1009.70 1009.14 1008.66 1008.28 1008.00 1007.81 1007.68 1007.56 1007.40 1007.15 1006.78 1006.28 1005.65 1004.93 1004.18 1003.48 1002.90 1002.52 1002.39 1002.54 1002.96 1003.62 1004.43 1005.33 1006.22 1007.03 1007.72 1008.27 1008.68 1008.97 1009.19 1009.38 1009.57 1009.78 1010.02 1010.28 1010.53 1010.77 1010.97 1011.14 1011.28 1011.40 1011.52 1011.66 1011.83 1012.02 1012.22
1011.36 1010.81 1010.24 1009.69 1009.21 1008.82 1008.55 1008.38 1008.28 1008.22 1008.12 1007.96 1007.67 1007.22 1006.62 1005.89 1005.08 1004.27 1003.55 1003.00 1002.70 1002.68 1002.95 1003.49 1004.24 1005.10 1005.98 1006.81 1007.53 1008.10 1008.53 1008.83 1009.04 1009.22 1009.39 1009.59 1009.82 1010.08 1010.34 1010.60 1010.83 1011.02 1011.18 1011.31 1011.42 1011.54 1011.66 1011.80 1011.94
1011.90 1011.40 1010.86 1010.34 1009.87 1009.47 1009.16 1008.95 1008.82 1008.73 1008.64 1008.49 1008.24 1007.84 1007.28 1006.58 1005.78 1004.94 1004.16 1003.53 1003.12 1002.98 1003.13 1003.56 1004.21 1005.00 1005.85 1006.67 1007.39 1007.97 1008.41 1008.72 1008.93 1009.10 1009.27 1009.46 1009.69 1009.96 1010.24 1010.52 1010.78 1011.00 1011.18 1011.32 1011.43 1011.53 1011.62 1011.70 1011.77
1012.48 1012.06 1011.60 1011.12 1010.66 1010.23 1009.86 1009.55 1009.31 1009.12 1008.95 1008.76 1008.50 1008.13 1007.63 1007.00 1006.27 1005.49 1004.74 1004.10 1003.65 1003.45 1003.51 1003.85 1004.40 1005.11 1005.89 1006.66 1007.35 1007.92 1008.36 1008.68 1008.90 1009.07 1009.24 1009.42 1009.65 1009.92 1010.21 1010.51 1010.79 1011.03 1011.22 1011.37 1011.48 1011.56 1011.61 1011.64 1011.66
1013.10 1012.79 1012.42 1012.01 1011.56 1011.10 1010.64 1010.20 1009.80 1009.45 1009.14 1008.84 1008.53 1008.16 1007.72 1007.18 1006.57 1005.92 1005.28 1004.72 1004.30 1004.09 1004.11 1004.36 1004.83 1005.44 1006.14 1006.83 1007.48 1008.01 1008.43 1008.74 1008.96 1009.14 1009.30 1009.48 1009.70 1009.96 1010.24 1010.54 1010.81 1011.06 1011.25 1011.39 1011.49 1011.54 1011.55 1011.54 1011.50
1013.72 1013.54 1013.29 1012.96 1012.54 1012.04 1011.48 1010.90 1010.31 1009.76 1009.27 1008.83 1008.43 1008.05 1007.66 1007.23 1006.77 1006.28 1005.80 1005.38 1005.05 1004.88 1004.89 1005.10 1005.48 1005.99 1006.58 1007.19 1007.76 1008.25 1008.64 1008.93 1009.14 1009.30 1009.46 1009.62 1009.82 1010.05 1010.32 1010.58 1010.83 1011.05 1011.22 1011.34 1011.39 1011.40 1011.37 1011.30 1011.20
1014.31 1014.26 1014.13 1013.88 1013.51 1012.99 1012.34 1011.61 1010.85 1010.10 1009.41 1008.82 1008.32 1007.90 1007.56 1007.24 1006.94 1006.64 1006.35 1006.09 1005.89 1005.79 1005.82 1005.99 1006.30 1006.71 1007.20 1007.70 1008.19 1008.62 1008.96 1009.23 1009.42 1009.57 1009.71 1009.85 1010.01 1010.20 1010.42 1010.63 1010.84 1011.00 1011.12 1011.18 1011.18 1011.14 1011.04 1010.91 1010.75
1014.80 1014.86 1014.85 1014.69 1014.36 1013.84 1013.14 1012.30 1011.38 1010.46 1009.61 1008.87 1008.28 1007.84 1007.52 1007.31 1007.16 1007.04 1006.94 1006.84 1006.78 1006.76 1006.83 1006.98 1007.22 1007.54 1007.93 1008.33 1008.73 1009.08 1009.38 1009.61 1009.78 1009.91 1010.02 1010.13 1010.25 1010.39 1010.54 1010.70 1010.83 1010.93 1010.98 1010.96 1010.89 1010.76 1010.60 1010.40 1010.17
1015.16 1015.30 1015.37 1015.30 1015.03 1014.53 1013.80 1012.90 1011.89 1010.85 1009.88 1009.04 1008.38 1007.92 1007.64 1007.50 1007.48 1007.52 1007.57 1007.63 1007.68 1007.74 1007.83 1007.97 1008.16 1008.40 1008.69 1009.00 1009.32 1009.60 1009.84 1010.03 1010.17 1010.27 1010.35 1010.42 1010.50 1010.60 1010.69 1010.78 1010.84 1010.86 1010.83 1010.74 1010.59 1010.38 1010.13 1009.85 1009.56
Thickness
5781 5788 5792 5789 5781 5779 5778 5787 5793 5791 5794 5802 5804 5802 5799 5797 5794 5788 5810 5819 5817 5813 5805 5795 5791 5787 5785 5782 5780 5778 5775 5772 5769 5766 5763 5761 5758 5756 5754 5752 5750 5748 5747 5745 5744 5742 5741 5740 5739
5784 5787 5786 5783 5775 5767 5775 5789 5787 5790 5797 5801 5802 5800 5798 5799 5807 5807 5811 5813 5813 5808 5801 5795 5787 5784 5781 5779 5776 5774 5772 5768 5766 5763 5760 5758 5755 5753 5751 5750 5748 5746 5744 5743 5741 5739 5738 5737 5736
5782 5784 5780 5777 5772 5772 5777 5786 5788 5794 5799 5798 5796 5799 5796 5795 5802 5805 5810 5810 5808 5804 5798 5791 5784 5780 5778 5775 5773 5770 5768 5765 5762 5760 5757 5755 5752 5750 5749 5747 5746 5743 5742 5740 5738 5737 5735 5734 5733
5779 5777 5776 5770 5768 5779 5783 5787 5789 5789 5793 5797 5795 5790 5795 5800 5802 5806 5808 5807 5804 5799 5795 5787 5780 5776 5774 5772 5769 5767 5764 5762 5759 5756 5754 5751 5749 5747 5745 5744 5742 5740 5739 5737 5735 5734 5733 5731 5731
5777 5772 5765 5764 5770 5780 5785 5787 5788 5785 5786 5791 5792 5786 5786 5797 5803 5804 5803 5802 5799 5796 5791 5784 5777 5773 5770 5768 5765 5763 5761 5758 5755 5752 5750 5747 5745 5744 5742 5740 5739 5737 5735 5734 5732 5731 5729 5729 5728
5767 5767 5759 5759 5769 5776 5782 5787 5786 5785 5787 5789 5789 5784 5784 5794 5795 5797 5798 5797 5796 5792 5788 5781 5773 5770 5767 5764 5762 5759 5757 5754 5751 5749 5746 5744 5742 5740 5739 5737 5735 5733 5731 5730 5729 5727 5726 5725 5724
5760 5759 5758 5763 5764 5768 5776 5785 5782 5782 5783 5786 5790 5782 5783 5787 5790 5793 5794 5793 5791 5788 5784 5779 5773 5768 5764 5761 5758 5756 5753 5750 5748 5745 5742 5740 5738 5737 5735 5733 5731 5729 5728 5726 5725 5724 5723 5722 5721
5765 5760 5756 5760 5758 5763 5775 5780 5782 5780 5780 5789 5789 5778 5776 5782 5787 5788 5787 5786 5784 5782 5780 5775 5772 5767 5763 5759 5754 5752 5749 5746 5744 5741 5739 5737 5735 5734 5732 5730 5728 5726 5724 5723 5722 5721 5720 5719 5718
5761 5752 5751 5757 5758 5762 5773 5772 5778 5784 5781 5781 5784 5783 5782 5784 5783 5780 5776 5776 5776 5775 5775 5772 5769 5765 5762 5759 5753 5749 5745 5742 5740 5737 5735 5734 5735 5734 5732 5730 5726 5723 5721 5720 5718 5717 5716 5716 5716
5754 5748 5752 5763 5766 5765 5769 5768 5771 5772 5771 5772 5775 5779 5780 5779 5777 5773 5771 5768 5767 5767 5768 5767 5765 5761 5759 5757 5751 5748 5745 5741 5739 5737 5734 5733 5733 5731 5730 5726 5723 5721 5719 5717 5716 5714 5714 5714 5716
5752 5748 5756 5761 5766 5765 5764 5766 5771 5766 5762 5767 5768 5770 5772 5771 5771 5770 5769 5768 5766 5765 5763 5763 5760 5757 5756 5753 5749 5747 5744 5740 5737 5734 5732 5730 5729 5728 5726 5724 5721 5719 5717 5717 5715 5715 5715 5715 5714
5749 5751 5756 5759 5763 5762 5761 5762 5763 5763 5764 5772 5774 5773 5769 5766 5765 5765 5765 5765 5764 5761 5758 5758 5756 5753 5751 5749 5746 5743 5740 5737 5735 5731 5729 5727 5726 5724 5723 5721 5720 5718 5717 5715 5714 5713 5712 5711 5711
5745 5749 5754 5758 5760 5760 5760 5757 5758 5759 5768 5772 5771 5769 5765 5763 5762 5762 5763 5762 5760 5756 5754 5753 5751 5748 5745 5743 5741 5739 5736 5734 5730 5727 5725 5723 5722 5720 5719 5716 5714 5714 5713 5711 5710 5710 5708 5707 5707
5748 5749 5752 5756 5757 5757 5753 5755 5755 5755 5764 5764 5763 5762 5761 5758 5758 5757 5756 5755 5754 5752 5750 5749 5746 5743 5740 5737 5735 5734 5732 5728 5727 5724 5721 5718 5717 5715 5713 5712 5709 5709 5708 5706 5705 5704 5703 5703 5702
5748 5743 5748 5753 5755 5756 5753 5746 5749 5755 5759 5756 5756 5756 5756 5755 5755 5753 5752 5750 5749 5747 5745 5743 5742 5739 5735 5733 5731 5729 5727 5725 5722 5719 5716 5713 5712 5709 5707 5707 5705 5704 5702 5700 5699 5699 5699 5698 5698
5745 5742 5740 5749 5752 5753 5745 5735 5744 5753 5752 5749 5750 5750 5749 5748 5750 5749 5748 5746 5745 5743 5740 5738 5739 5734 5731 5728 5725 5724 5722 5719 5716 5714 5711 5708 5706 5703 5701 5702 5701 5698 5697 5696 5695 5694 5694 5694 5693
5741 5735 5736 5742 5750 5748 5742 5733 5740 5747 5746 5743 5744 5744 5743 5743 5743 5743 5743 5742 5740 5738 5735 5733 5732 5729 5726 5723 5719 5718 5715 5713 5711 5709 5706 5703 5700 5698 5697 5697 5695 5693 5692 5691 5691 5690 5688 5687 5687
5729 5733 5732 5734 5742 5741 5734 5731 5736 5741 5740 5739 5739 5739 5737 5736 5736 5737 5737 5736 5735 5733 5730 5728 5726 5724 5721 5719 5715 5713 5710 5708 5705 5703 5700 5697 5695 5693 5692 5692 5689 5688 5687 5686 5684 5683 5682 5681 5681
5732 5730 5727 5732 5739 5733 5728 5728 5730 5735 5735 5733 5733 5732 5731 5731 5733 5732 5731 5730 5730 5727 5725 5724 5721 5719 5716 5714 5711 5708 5705 5703 5701 5698 5695 5692 5690 5689 5687 5687 5684 5683 5682 5680 5679 5678 5677 5677 5677
5727 5725 5726 5729 5733 5728 5724 5725 5730 5730 5727 5727 5726 5725 5725 5725 5725 5725 5725 5725 5724 5723 5720 5719 5718 5716 5712 5710 5708 5705 5703 5700 5697 5695 5691 5688 5686 5684 5684 5681 5680 5679 5676 5675 5674 5672 5672 5673 5672
5723 5724 5723 5721 5726 5728 5723 5718 5722 5723 5724 5724 5723 5723 5722 5720 5719 5719 5720 5720 5720 5718 5716 5716 5714 5712 5709 5707 5704 5700 5697 5695 5692 5689 5686 5684 5681 5679 5678 5677 5676 5674 5673 5672 5669 5667 5665 5666 5667
5717 5726 5723 5720 5719 5721 5721 5711 5716 5716 5714 5715 5716 5718 5718 5718 5717 5717 5717 5716 5715 5714 5713 5712 5709 5707 5705 5703 5700 5696 5693 5690 5688 5685 5682 5679 5677 5675 5673 5672 5671 5669 5669 5667 5666 5665 5661 5659 5659
5719 5724 5722 5721 5721 5718 5720 5711 5712 5714 5706 5707 5710 5713 5714 5715 5714 5713 5714 5713 5713 5712 5710 5707 5704 5702 5700 5698 5695 5692 5689 5687 5684 5681 5677 5674 5673 5671 5669 5667 5666 5664 5664 5662 5660 5658 5655 5654 5653
5722 5721 5721 5723 5723 5704 5710 5705 5698 5702 5699 5704 5708 5710 5710 5711 5711 5711 5711 5710 5709 5708 5706 5703 5699 5697 5695 5692 5690 5687 5684 5681 5678 5675 5673 5671 5669 5667 5665 5663 5661 5660 5659 5657 5654 5652 5650 5648 5647
5719 5711 5705 5705 5705 5703 5709 5700 5688 5695 5700 5701 5702 5704 5706 5708 5707 5706 5706 5705 5704 5703 5701 5699 5696 5693 5691 5688 5685 5683 5680 5677 5674 5671 5669 5667 5665 5663 5660 5659 5656 5655 5652 5650 5649 5646 5645 5643 5640
5713 5710 5697 5691 5696 5702 5702 5692 5691 5697 5699 5701 5701 5701 5702 5703 5704 5703 5702 5700 5699 5698 5696 5694 5692 5689 5687 5684 5681 5679 5676 5675 5672 5668 5666 5664 5662 5659 5656 5654 5652 5649 5646 5645 5643 5642 5640 5638 5635
5710 5709 5713 5705 5702 5693 5695 5692 5692 5697 5695 5696 5696 5695 5696 5697 5698 5698 5697 5696 5695 5693 5691 5690 5688 5685 5683 5680 5677 5675 5672 5670 5667 5664 5662 5660 5657 5655 5652 5649 5646 5643 5641 5639 5637 5637 5634 5632 5630
5715 5710 5706 5700 5684 5679 5684 5685 5682 5685 5686 5689 5689 5689 5690 5691 5693 5693 5692 5692 5691 5689 5688 5686 5684 5681 5679 5676 5674 5672 5669 5666 5663 5661 5657 5655 5652 5649 5647 5645 5642 5639 5637 5635 5633 5632 5630 5627 5625
5705 5704 5701 5700 5694 5679 5671 5675 5685 5682 5683 5684 5685 5685 5686 5686 5687 5688 5689 5689 5688 5686 5685 5682 5680 5677 5675 5674 5671 5669 5666 5663 5661 5657 5654 5651 5648 5645 5643 5641 5638 5635 5633 5631 5628 5627 5625 5622 5620
5707 5702 5699 5686 5683 5684 5676 5672 5687 5684 5684 5683 5683 5682 5683 5683 5684 5685 5684 5684 5683 5681 5680 5677 5676 5674 5672 5671 5668 5665 5663 5660 5656 5654 5651 5648 5645 5642 5639 5636 5634 5631 5629 5626 5624 5622 5620 5617 5614